Location: Ertinghausen
(51.6624°N, 9.7874°E)
Time: 08:57:38
(UTC+00:00)

Cosmos 1315 Rocket - Pass Details

Date: 23 May 2024
Orbit: 515 x 542 km, 81.2° (Epoch: 23 June)

Event Time Altitude Azimuth Distance (km) Brightness Sun altitude
Exits shadow 01:39:59 17° 223° (SW) 1,392 4.2 -11.3°
Maximum altitude 01:42:41 41° 288° (WNW) 772 3.4 -11.0°
Drops below altitude 10° 01:46:26 10° 1° (N) 1,792 6.3 -10.7°
Sets 01:48:42 0° 8° (N) 2,693 7.6 -10.5°
